Voltar ao catálogo

STARLINK-6071

AtivoComunicaçõesVLEO
NORAD 56132·PAYLOAD·🇺🇸 United States

Lançado Mar 29, 2023 de Cape Canaveral Space Force Station

Loading…

Próximas Passagens (próximas 24 horas)

TLE

AtualizadoSource: CelesTrak SupGP

Época: Sep 15, 2026, 02:51 UTC

1 56132C 23046AR  26258.11923611  .00042659  00000+0  15452-2 0  2581
2 56132  43.0025 156.8671 0001745 272.0472 128.5963 15.27555172    13

Acompanhe STARLINK-6071 em tempo real com AllMySat

Download on the App Store